Volk, WI

7:52 AM CDT on July 24, 2017 (GMT -0500)
Volk

Weather History for KVOK - February, 2014

Change the Weather History Date:

Saturday, February 22, 2014

  Actual Average Record
Temperature  
Mean Temperature 16 °F -  
Max Temperature 23 °F 31 °F 64 °F (2017)
Min Temperature 8 °F 19 °F -11 °F (2015)
Degree Days  
Heating Degree Days 49    
Moisture  
Dew Point 5 °F    
Average Humidity 63    
Maximum Humidity 74    
Minimum Humidity 50    
Precipitation  
Precipitation 0.00 in - - ()
Snow  
Snow 0.00 in - - ()
Snow Depth 11.00 in    
Sea Level Pressure  
Sea Level Pressure 29.96 in    
Wind  
Wind Speed 15 mph (WSW)    
Max Wind Speed 20 mph    
Max Gust Speed 25 mph    
Visibility 10 miles    
Events      
Averages and records for this station are not official NWS values.
T = Trace of Precipitation, MM = Missing Value Source: NWS Daily Summary

Daily Weather History Graph

Daily Weather History Graph

Search for Another Location

Airport or City:

Trip Planner

Search our weather history database for the weather conditions in past years. The results will help you decide how hot, cold, wet, or windy it might be!

Date:

Astronomy

Feb. 22, 2014 Rise Set
Actual Time 6:49 AM CST 5:40 PM CST
Civil Twilight 6:20 AM CST 6:09 PM CST
Nautical Twilight 5:46 AM CST 6:43 PM CST
Astronomical Twilight 5:13 AM CST 7:16 PM CST
Moon 12:49 AM CST (2/22) 10:46 AM CST (2/22)
Length of Visible Light 11h 49m
Length of Day
10h 51m
Waning Gibbous, 50% of the Moon is Illuminated
Feb 22
Waning Gibbous
Mar 1
New
Mar 8
First Quarter
Mar 16
Full
Mar 23
Last Quarter

Hourly Weather History & Observations

Time (CST) Temp. Windchill Dew Point Humidity Pressure Visibility Wind Dir Wind Speed Gust Speed Precip Events Conditions
12:58 AM 16.0 °F 0.6 °F 7.9 °F 70% 29.77 in 10.0 mi WSW 16.1 mph 25.3 mph N/A   Clear
1:58 AM 15.1 °F -2.0 °F 7.2 °F 71% 29.79 in 10.0 mi WSW 19.6 mph 24.2 mph N/A   Clear
2:58 AM 14.4 °F -1.0 °F 5.9 °F 69% 29.81 in 10.0 mi SW 15.0 mph 21.9 mph N/A   Clear
3:58 AM 13.6 °F -0.7 °F 5.2 °F 69% 29.83 in 10.0 mi WSW 12.7 mph - N/A   Clear
4:58 AM 13.3 °F -2.4 °F 4.6 °F 68% 29.85 in 10.0 mi WSW 15.0 mph - N/A   Clear
5:58 AM 13.1 °F -2.6 °F 4.5 °F 68% 29.87 in 10.0 mi WSW 15.0 mph 20.7 mph N/A   Clear
6:58 AM 12.4 °F -2.3 °F 3.9 °F 69% 29.91 in 10.0 mi WSW 12.7 mph 21.9 mph N/A   Clear
7:58 AM 12.2 °F -4.3 °F 3.2 °F 67% 29.93 in 10.0 mi WSW 16.1 mph - N/A   Clear
8:58 AM 14.0 °F -1.4 °F 3.2 °F 62% 29.96 in 10.0 mi West 15.0 mph 23.0 mph N/A   Clear
9:58 AM 15.8 °F 0.9 °F 5.0 °F 62% 29.97 in 10.0 mi West 15.0 mph 24.2 mph N/A   Clear
10:59 AM 19.4 °F 4.1 °F 6.8 °F 58% 29.98 in 10.0 mi West 18.4 mph 24.2 mph N/A   Partly Cloudy
11:58 AM 21.2 °F 6.4 °F 6.8 °F 54% 29.97 in 10.0 mi West 18.4 mph 20.7 mph N/A   Clear
12:58 PM 21.2 °F 7.3 °F 8.6 °F 58% 29.97 in 10.0 mi WSW 16.1 mph - N/A   Clear
1:58 PM 23.0 °F 9.2 °F 6.8 °F 50% 29.96 in 10.0 mi WSW 17.3 mph 21.9 mph N/A   Clear
2:58 PM 23.0 °F 8.7 °F 8.6 °F 54% 29.97 in 10.0 mi WSW 18.4 mph 21.9 mph N/A   Clear
3:58 PM 21.9 °F 7.8 °F 7.3 °F 54% 29.98 in 10.0 mi West 17.3 mph 23.0 mph N/A   Clear
4:03 PM 21.2 °F 6.8 °F 6.8 °F 54% 29.93 in 10.0 mi SW 17.3 mph 24.2 mph N/A   Clear
4:14 PM 21.2 °F 6.8 °F 6.8 °F 54% 29.93 in 10.0 mi West 17.3 mph - N/A   Clear
4:58 PM 20.3 °F 8.3 °F 7.0 °F 56% 29.99 in 10.0 mi SW 11.5 mph 19.6 mph N/A   Clear
5:58 PM 17.2 °F 3.3 °F 5.7 °F 61% 30.01 in 10.0 mi WSW 13.8 mph - N/A   Clear
6:58 PM 15.1 °F 1.1 °F 5.0 °F 64% 30.05 in 10.0 mi WSW 12.7 mph 21.9 mph N/A   Clear
7:58 PM 13.5 °F -1.5 °F 4.5 °F 67% 30.07 in 10.0 mi SW 13.8 mph 20.7 mph N/A   Clear
8:58 PM 11.8 °F -2.3 °F 3.6 °F 69% 30.09 in 10.0 mi WSW 11.5 mph - N/A   Clear
9:58 PM 10.6 °F -3.8 °F 2.8 °F 71% 30.10 in 10.0 mi WSW 11.5 mph 17.3 mph N/A   Clear
10:58 PM 9.1 °F -3.0 °F 2.1 °F 73% 30.11 in 10.0 mi SW 8.1 mph - N/A   Clear
11:58 PM 8.6 °F -5.5 °F 1.8 °F 74% 30.12 in 10.0 mi WSW 10.4 mph - N/A   Clear